Hourly Weather Kitob

Today, 21 October, Wednesday

Time Temperature Precipitation Wind Pressure Humidity
00:00 +15°C° 0 mm 1 mps 706 mmHg 24%
01:00 +15°C° 0 mm 1 mps 706 mmHg 24%
02:00 +15°C° 0 mm 1 mps 706 mmHg 25%
03:00 +14°C° 0 mm 1 mps 707 mmHg 25%
04:00 +14°C° 0 mm 1 mps 707 mmHg 25%
05:00 +15°C° 0 mm 1 mps 708 mmHg 24%
06:00 +16°C° 0 mm 1 mps 708 mmHg 24%
07:00 +16°C° 0 mm 1 mps 708 mmHg 23%
08:00 +19°C° 0 mm 1 mps 709 mmHg 20%
09:00 +20°C° 0 mm 2 mps 709 mmHg 17%
10:00 +22°C° 0 mm 3 mps 710 mmHg 15%
11:00 +24°C° 0 mm 3 mps 710 mmHg 15%
12:00 +25°C° 0 mm 3 mps 709 mmHg 14%
13:00 +25°C° 0 mm 4 mps 709 mmHg 14%
14:00 +24°C° 0 mm 3 mps 709 mmHg 14%
15:00 +24°C° 0 mm 3 mps 709 mmHg 15%
16:00 +23°C° 0 mm 2 mps 708 mmHg 15%
17:00 +20°C° 0 mm 2 mps 708 mmHg 17%
18:00 +19°C° 0 mm 1 mps 708 mmHg 19%
19:00 +16°C° 0 mm 1 mps 708 mmHg 21%
20:00 +15°C° 0 mm 1 mps 708 mmHg 22%
21:00 +15°C° 0 mm 1 mps 708 mmHg 23%
22:00 +14°C° 0 mm 1 mps 708 mmHg 23%
23:00 +14°C° 0 mm 1 mps 708 mmHg 24%

Tomorrow, 22 October, Thursday

Time Temperature Precipitation Wind Pressure Humidity
00:00 +14°C° 0 mm 1 mps 708 mmHg 24%
01:00 +14°C° 0 mm 1 mps 708 mmHg 24%
02:00 +13°C° 0 mm 1 mps 708 mmHg 25%
03:00 +13°C° 0 mm 1 mps 708 mmHg 25%
04:00 +13°C° 0 mm 1 mps 708 mmHg 25%
05:00 +14°C° 0 mm 1 mps 709 mmHg 24%
06:00 +13°C° 0 mm 0 mps 709 mmHg 24%
07:00 +14°C° 0 mm 0 mps 710 mmHg 23%
08:00 +18°C° 0 mm 1 mps 710 mmHg 20%
09:00 +18°C° 0 mm 2 mps 710 mmHg 18%
10:00 +20°C° 0 mm 2 mps 710 mmHg 15%
11:00 +20°C° 0 mm 3 mps 709 mmHg 16%
12:00 +21°C° 0 mm 3 mps 709 mmHg 17%
13:00 +22°C° 0 mm 4 mps 709 mmHg 17%
14:00 +21°C° 0 mm 4 mps 708 mmHg 23%
15:00 +19°C° 0 mm 4 mps 708 mmHg 28%
16:00 +18°C° 0 mm 3 mps 708 mmHg 34%
17:00 +17°C° 0 mm 3 mps 708 mmHg 39%
18:00 +15°C° 0 mm 2 mps 708 mmHg 45%
19:00 +13°C° 0 mm 1 mps 708 mmHg 51%
20:00 +12°C° 0 mm 1 mps 708 mmHg 52%
21:00 +11°C° 0 mm 1 mps 708 mmHg 53%
22:00 +11°C° 0 mm 1 mps 708 mmHg 54%
23:00 +11°C° 0 mm 1 mps 708 mmHg 53%

Day after tomorrow, 23 October, Friday

Time Temperature Precipitation Wind Pressure Humidity
00:00 +10°C° 0 mm 1 mps 708 mmHg 52%
01:00 +10°C° 0 mm 1 mps 708 mmHg 51%
02:00 +10°C° 0 mm 1 mps 708 mmHg 51%
03:00 +10°C° 0 mm 1 mps 708 mmHg 51%
04:00 +9°C° 0 mm 1 mps 708 mmHg 51%
05:00 +10°C° 0 mm 1 mps 708 mmHg 51%
06:00 +10°C° 0 mm 1 mps 709 mmHg 50%
07:00 +10°C° 0 mm 1 mps 709 mmHg 49%
08:00 +11°C° 0 mm 1 mps 710 mmHg 45%
09:00 +13°C° 0 mm 2 mps 710 mmHg 42%
10:00 +14°C° 0 mm 2 mps 710 mmHg 38%
11:00 +14°C° 0 mm 3 mps 710 mmHg 34%
12:00 +14°C° 0 mm 3 mps 710 mmHg 31%
13:00 +16°C° 0 mm 3 mps 710 mmHg 27%
14:00 +16°C° 0 mm 3 mps 710 mmHg 28%
15:00 +15°C° 0 mm 2 mps 710 mmHg 28%
16:00 +15°C° 0 mm 2 mps 710 mmHg 29%
17:00 +13°C° 0 mm 2 mps 710 mmHg 33%
18:00 +12°C° 0 mm 2 mps 710 mmHg 37%
19:00 +10°C° 0 mm 1 mps 710 mmHg 40%
20:00 +10°C° 0 mm 1 mps 710 mmHg 42%
21:00 +9°C° 0 mm 1 mps 710 mmHg 44%
22:00 +9°C° 0 mm 1 mps 710 mmHg 46%
23:00 +9°C° 0 mm 1 mps 710 mmHg 46%

24 October, Saturday

Time Temperature Precipitation Wind Pressure Humidity
00:00 +9°C° 0 mm 1 mps 710 mmHg 46%
01:00 +9°C° 0 mm 1 mps 710 mmHg 46%
02:00 +8°C° 0 mm 0 mps 709 mmHg 47%
03:00 +7°C° 0 mm 0 mps 709 mmHg 48%
04:00 +7°C° 0 mm 0 mps 709 mmHg 48%
05:00 +8°C° 0 mm 0 mps 709 mmHg 46%
06:00 +9°C° 0 mm 0 mps 710 mmHg 44%
07:00 +10°C° 0 mm 0 mps 710 mmHg 42%
08:00 +12°C° 0 mm 1 mps 710 mmHg 38%
09:00 +14°C° 0 mm 1 mps 710 mmHg 34%
10:00 +15°C° 0 mm 2 mps 710 mmHg 30%
11:00 +16°C° 0 mm 2 mps 710 mmHg 28%
12:00 +17°C° 0 mm 3 mps 710 mmHg 27%
13:00 +17°C° 0 mm 3 mps 710 mmHg 25%
14:00 +17°C° 0 mm 2 mps 710 mmHg 26%
15:00 +16°C° 0 mm 2 mps 709 mmHg 26%
16:00 +16°C° 0 mm 2 mps 709 mmHg 27%
17:00 +14°C° 0 mm 2 mps 709 mmHg 31%
18:00 +12°C° 0 mm 1 mps 709 mmHg 35%
19:00 +10°C° 0 mm 1 mps 710 mmHg 40%
20:00 +10°C° 0 mm 1 mps 710 mmHg 41%
21:00 +10°C° 0 mm 1 mps 710 mmHg 43%
22:00 +8°C° 0 mm 0 mps 710 mmHg 44%
23:00 +9°C° 0 mm 1 mps 710 mmHg 44%

25 October, Sunday

Time Temperature Precipitation Wind Pressure Humidity
00:00 +9°C° 0 mm 1 mps 710 mmHg 44%
01:00 +9°C° 0 mm 1 mps 710 mmHg 45%
02:00 +9°C° 0 mm 1 mps 710 mmHg 45%
03:00 +9°C° 0 mm 1 mps 710 mmHg 46%
04:00 +9°C° 0 mm 1 mps 710 mmHg 46%
05:00 +10°C° 0 mm 1 mps 710 mmHg 44%
06:00 +11°C° 0 mm 1 mps 711 mmHg 42%
07:00 +11°C° 0 mm 1 mps 711 mmHg 39%
08:00 +13°C° 0 mm 1 mps 711 mmHg 35%
09:00 +15°C° 0 mm 1 mps 711 mmHg 30%
10:00 +18°C° 0 mm 1 mps 711 mmHg 26%
11:00 +18°C° 0 mm 2 mps 711 mmHg 25%
12:00 +19°C° 0 mm 2 mps 711 mmHg 23%
13:00 +20°C° 0 mm 2 mps 710 mmHg 22%
14:00 +19°C° 0 mm 2 mps 710 mmHg 23%
15:00 +19°C° 0 mm 2 mps 710 mmHg 24%
16:00 +18°C° 0 mm 2 mps 709 mmHg 25%
17:00 +16°C° 0 mm 2 mps 709 mmHg 28%
18:00 +15°C° 0 mm 2 mps 709 mmHg 32%
19:00 +13°C° 0 mm 2 mps 709 mmHg 36%
20:00 +13°C° 0 mm 2 mps 709 mmHg 36%
21:00 +13°C° 0 mm 2 mps 709 mmHg 36%
22:00 +12°C° 0 mm 2 mps 709 mmHg 36%
23:00 +12°C° 0 mm 1 mps 708 mmHg 36%

26 October, Monday

Time Temperature Precipitation Wind Pressure Humidity
00:00 +12°C° 0 mm 1 mps 708 mmHg 35%
01:00 +12°C° 0 mm 1 mps 708 mmHg 34%
02:00 +12°C° 0 mm 1 mps 708 mmHg 34%
03:00 +12°C° 0 mm 1 mps 708 mmHg 34%
04:00 +12°C° 0 mm 1 mps 707 mmHg 35%
05:00 +13°C° 0 mm 1 mps 708 mmHg 32%
06:00 +13°C° 0 mm 1 mps 708 mmHg 29%
07:00 +14°C° 0 mm 1 mps 708 mmHg 26%
08:00 +18°C° 0 mm 1 mps 708 mmHg 22%
09:00 +20°C° 0 mm 1 mps 708 mmHg 18%
10:00 +23°C° 0 mm 1 mps 708 mmHg 14%
11:00 +24°C° 0 mm 1 mps 708 mmHg 13%
12:00 +25°C° 0 mm 2 mps 708 mmHg 12%
13:00 +26°C° 0 mm 2 mps 707 mmHg 11%
14:00 +25°C° 0 mm 2 mps 707 mmHg 12%
15:00 +23°C° 0 mm 2 mps 707 mmHg 14%
16:00 +22°C° 0 mm 1 mps 706 mmHg 15%
17:00 +21°C° 0 mm 1 mps 706 mmHg 18%
18:00 +19°C° 0 mm 1 mps 706 mmHg 21%
19:00 +16°C° 0 mm 2 mps 705 mmHg 23%
20:00 +16°C° 0 mm 1 mps 705 mmHg 22%
21:00 +16°C° 0 mm 1 mps 705 mmHg 22%
22:00 +16°C° 0 mm 1 mps 705 mmHg 21%
23:00 +15°C° 0 mm 1 mps 705 mmHg 20%

27 October, Tuesday

Time Temperature Precipitation Wind Pressure Humidity
00:00 +15°C° 0 mm 1 mps 705 mmHg 20%
01:00 +15°C° 0 mm 1 mps 705 mmHg 20%
02:00 +15°C° 0 mm 1 mps 704 mmHg 20%
03:00 +15°C° 0 mm 1 mps 704 mmHg 19%
04:00 +15°C° 0 mm 1 mps 704 mmHg 19%
05:00 +15°C° 0 mm 1 mps 704 mmHg 18%
06:00 +15°C° 0 mm 0 mps 705 mmHg 17%
07:00 +16°C° 0 mm 0 mps 705 mmHg 15%
08:00 +20°C° 0 mm 1 mps 705 mmHg 13%
09:00 +22°C° 0 mm 1 mps 706 mmHg 11%
10:00 +25°C° 0 mm 1 mps 706 mmHg 10%
11:00 +25°C° 0 mm 2 mps 706 mmHg 9%
12:00 +26°C° 0 mm 2 mps 706 mmHg 9%
13:00 +26°C° 0 mm 3 mps 706 mmHg 9%
14:00 +25°C° 0 mm 2 mps 706 mmHg 10%
15:00 +24°C° 0 mm 2 mps 706 mmHg 12%
16:00 +22°C° 0 mm 1 mps 706 mmHg 13%
17:00 +21°C° 0 mm 1 mps 706 mmHg 14%
18:00 +19°C° 0 mm 1 mps 706 mmHg 16%
19:00 +18°C° 0 mm 1 mps 706 mmHg 17%
20:00 +16°C° 0 mm 1 mps 706 mmHg 18%
21:00 +16°C° 0 mm 1 mps 706 mmHg 18%
22:00 +14°C° 0 mm 0 mps 706 mmHg 19%
23:00 +14°C° 0 mm 0 mps 706 mmHg 20%
Show more